• MPC Preparation (Info)

  • MPEC 2016-C96 : 2016 CE32

    The following Minor Planet Electronic Circular may be linked-to from your own Web pages, but must not otherwise be redistributed electronically.

    A form allowing access to any MPEC is at the bottom of this page.


    Read MPEC 2016-C95 Read MPEC 2016-C97


    M.P.E.C. 2016-C96                                Issued 2016 Feb. 8, 16:45 UT
    
         The Minor Planet Electronic Circulars contain information on unusual
             minor planets and routine data on comets.  They are published
        on behalf of Division F of the International Astronomical Union by the
              Minor Planet Center, Smithsonian Astrophysical Observatory,
                              Cambridge, MA 02138, U.S.A.
    
                 Prepared using the Tamkin Foundation Computer Network
    
                                  MPC@CFA.HARVARD.EDU
                URL https://www.minorplanetcenter.net/    ISSN 1523-6714
    
                                       2016 CE32
    
    Observations:
         K16C32E* C2016 02 06.42207 10 05 51.54 +52 52 14.9          20.6 VqEC096G96
         K16C32E  C2016 02 06.43443 10 05 50.03 +52 53 15.8          21.3 VqEC096G96
         K16C32E  C2016 02 06.44059 10 05 49.30 +52 53 45.4                qEC096G96
         K16C32E  C2016 02 06.47527 10 05 45.02 +52 56 34.6          20.2 VqEC096G96
         K16C32E  C2016 02 06.48087 10 05 44.31 +52 57 01.9          21.4 VqEC096I52
         K16C32E  C2016 02 06.48169 10 05 44.25 +52 57 05.8          20.9 VqEC096G96
         K16C32E  C2016 02 06.48510 10 05 43.85 +52 57 22.2          21.2 VqEC096I52
         K16C32E  C2016 02 06.48812 10 05 43.50 +52 57 37.3          20.6 VqEC096G96
         K16C32E  C2016 02 06.48924 10 05 43.43 +52 57 42.9          21.6 VqEC096I52
         K16C32E  C2016 02 06.49303 10 05 42.88 +52 58 01.0          21.3 VqEC096I52
         K16C32E  C2016 02 06.49453 10 05 42.76 +52 58 07.8          20.5 VqEC096G96
         K16C32E  C2016 02 06.85193 10 05 18.35 +53 28 20.1          21.7 VSEC096033
         K16C32E  C2016 02 06.85431 10 05 18.09 +53 28 32.7          21.3 VSEC096033
         K16C32E  C2016 02 06.85667 10 05 17.72 +53 28 45.5          21.3 VSEC096033
         K16C32E  C2016 02 06.85904 10 05 17.51 +53 28 58.9          21.9 VSEC096033
         K16C32E  C2016 02 06.92162 10 05 10.05 +53 34 35.6          21.2 VSEC096033
         K16C32E  C2016 02 07.02513 10 04 56.66 +53 43 39.8          19.3 VSEC096033
         K16C32E  C2016 02 07.02749 10 04 56.40 +53 43 52.4          20.4 VSEC096033
         K16C32E  C2016 02 07.02986 10 04 56.13 +53 44 04.8          20.7 VSEC096033
         K16C32E  C2016 02 07.03223 10 04 55.79 +53 44 17.0          20.3 VSEC096033
         K16C32E  C2016 02 07.03459 10 04 55.50 +53 44 29.7          20.7 VSEC096033
         K16C32E  C2016 02 07.28954 10 04 32.62 +54 07 19.8          21.0 VqEC096I52
         K16C32E  C2016 02 07.29291 10 04 32.11 +54 07 38.6          21.1 VqEC096I52
         K16C32E  C2016 02 07.29628 10 04 31.69 +54 07 56.7          20.9 VqEC096I52
         K16C32E  C2016 02 07.29965 10 04 31.18 +54 08 14.8          20.8 VqEC096I52
         K16C32E  C2016 02 08.31358510 02 33.02 +55 41 55.0          20.9 VtEC096H01
         K16C32E  C2016 02 08.31847 10 02 32.70 +55 42 24.5          21.0 VqEC096I52
         K16C32E  C2016 02 08.32107 10 02 32.29 +55 42 40.3          21.1 VqEC096I52
         K16C32E  C2016 02 08.32310910 02 31.40 +55 42 50.3          21.0 VtEC096H01
         K16C32E  C2016 02 08.32351 10 02 31.81 +55 42 53.8          20.6 VqEC096I52
         K16C32E  C2016 02 08.32704 10 02 31.17 +55 43 14.0          21.4 VqEC096I52
         K16C32E  C2016 02 08.33118410 02 30.03 +55 43 36.9          21.1 VtEC096H01
         K16C32E  C2016 02 08.34061310 02 28.40 +55 44 31.1          21.2 VtEC096H01
    
    Observer details:
    033 Karl Schwarzschild Observatory, Tautenburg.  Observers B. Stecklum,
        F. Ludwig.  Measurer B. Stecklum.  1.34-m f/3 Schmidt + CCD.
    G96 Mt. Lemmon Survey.  Observer D. C. Fuls.  Measurers E. J. Christensen,
        D. C. Fuls, A. R. Gibbs, A. D. Grauer, J. A. Johnson, R. A. Kowalski,
        S. M. Larson, G. J. Leonard, R. G. Matheny, R. L. Seaman, F. C. Shelly.
        1.5-m reflector + CCD.
    H01 Magdalena Ridge Observatory, Socorro.  Observers W. H. Ryan, E. V. Ryan.
        Measurer W. H. Ryan.  2.4-m f/8.9 reflector + CCD.
    I52 Steward Observatory, Mt. Lemmon Station.  Observer A. R. Gibbs.  Measurers
        E. J. Christensen, D. C. Fuls, A. R. Gibbs, A. D. Grauer, J. A. Johnson,
        R. A. Kowalski, S. M. Larson, G. J. Leonard, R. G. Matheny, R. L. Seaman,
        F. C. Shelly.  1.0-m reflector + CCD.
    
    Orbital elements:
    2016 CE32                                                Earth MOID = 0.0549 AU
    Epoch 2016 Jan. 13.0 TT = JDT 2457400.5                 MPC
    M 284.11009              (2000.0)            P               Q
    n   0.76449055     Peri.  223.39125     -0.57582279     +0.81738104
    a   1.1845534      Node    11.48977     -0.72359570     -0.49938561
    e   0.3582779      Incl.    5.12283     -0.38057505     -0.28723205
    P   1.29           H   23.9           G   0.15           U   8
    Residuals in seconds of arc
    160206 G96  0.1-  0.0     160206 033  0.1+  0.3-    160207 I52  0.1-  0.4+
    160206 G96  0.2+  0.3+    160206 033  0.2+  0.5-    160207 I52  0.5+  0.1+
    160206 G96  0.6+  0.3-    160206 033  0.7-  0.4-    160207 I52  0.3+  0.1-
    160206 G96  0.0   0.1-    160206 033  0.2-  0.3+    160208 H01  0.3-  0.2-
    160206 I52  0.4-  0.0     160206 033 (0.1+  2.1+)   160208 I52  0.1+  0.3-
    160206 G96  0.1-  0.1-    160207 033  0.6-  0.2-    160208 I52  0.5+  0.4+
    160206 I52  0.0   0.2-    160207 033  0.2-  0.1+    160208 H01  0.1-  0.1+
    160206 G96  0.0   0.3+    160207 033  0.2+  0.1+    160208 I52  0.0   0.2-
    160206 I52  0.6+  0.5+    160207 033  0.1-  0.1-    160208 I52  0.3-  0.4-
    160206 I52  0.4-  0.2+    160207 033  0.1+  0.3+    160208 H01  0.1+  0.2+
    160206 G96  0.1+  0.2-    160207 I52  0.1+  0.1-    160208 H01  0.0   0.2+
    
    Ephemeris:
    2016 CE32                a,e,i = 1.18, 0.36, 5                   q = 0.7602
    Date    TT    R. A. (2000) Decl.     Delta      r     Elong.  Phase     V
    2016 01 09    10 03 56.4 +32 57 25   0.3218  1.2525   141.9    29.0    23.2
    ...
    2016 01 24    10 11 59.2 +39 59 59   0.2110  1.1697   148.7    25.9    22.0
    ...
    2016 02 01    10 10 58.5 +46 27 17   0.1604  1.1231   147.0    28.6    21.4
    ...
    2016 02 07    10 04 59.8 +53 41 21   0.1266  1.0874   140.9    34.9    21.0
    2016 02 08    10 03 10.8 +55 11 44   0.1214  1.0813   139.4    36.4    21.0
    2016 02 09    10 00 59.5 +56 48 40   0.1162  1.0753   137.7    38.1    20.9
    ...
    2016 02 15    09 30 38.9 +69 26 50   0.08850 1.0390   123.5    52.4    20.6
    ...
    2016 02 23    00 42 10.4 +76 48 48   0.06461 0.9906    89.3    86.9    21.0
    ...
    2016 03 09    22 50 11.8 +13 22 51   0.09581 0.9030    19.2   158.8    29.2
    
    A. U. Tomatic                (C) Copyright 2016 MPC           M.P.E.C. 2016-C96
    

    Read MPEC 2016-C95 Read MPEC 2016-C97


    MPEC number:

    Enter an MPEC number in one of the following forms:

    • 1997-B01 (the full form)
    • J97B01 (the packed version of the full form)
    • B01 (the abbreviated form)